Weather History for Keene, NH

Change the Weather History Date:

Tuesday, July 16, 2013

  Actual Average Record
Temperature  
Mean Temperature 80 °F -  
Max Temperature 89 °F 83 °F 96 °F (1968)
Min Temperature 69 °F 58 °F 38 °F (1932)
Cooling Degree Days 15    
Growing Degree Days 30 (Base 50)    
Moisture  
Dew Point 65 °F    
Average Humidity 55    
Maximum Humidity 78    
Minimum Humidity 43    
Precipitation  
Precipitation 0.09 in - - ()
Sea Level Pressure  
Sea Level Pressure 30.16 in    
Wind  
Wind Speed 9 mph (North)    
Max Wind Speed 14 mph    
Max Gust Speed 20 mph    
Visibility 10 miles    
Events      
Averages and records for this station are not official NWS values.
T = Trace of Precipitation, MM = Missing Value Source: NWS Daily Summary

Daily Weather History Graph

Daily Weather History Graph

Search for Another Location

Airport:

Trip Planner

Search our weather history database for the weather conditions in past years. The results will help you decide how hot, cold, wet, or windy it might be!

Date:

Astronomy

Jul. 16, 2013 Rise Set
Actual Time 5:24 AM EDT 8:24 PM EDT
Civil Twilight 4:51 AM EDT 8:58 PM EDT
Nautical Twilight 4:07 AM EDT 9:41 PM EDT
Astronomical Twilight 3:16 AM EDT 10:32 PM EDT
Moon 1:59 PM EDT (7/16) No Moon Set
Length of Visible Light 16h 07m
Length of Day
15h 00m
First Quarter, 56% of the Moon is Illuminated
Jul 16
First Quarter
Jul 22
Full
Jul 29
Last Quarter
Aug 6
New
Aug 14
First Quarter

Hourly Weather History & Observations

Time (EDT) Temp. Heat Index Dew Point Humidity Pressure Visibility Wind Dir Wind Speed Gust Speed Precip Events Conditions
11:55 AM 87.8 °F 89.4 °F 64.4 °F 46% 30.18 in 10.0 mi NNW 13.8 mph 18.4 mph N/A   Unknown
12:15 PM 87.8 °F 89.4 °F 64.4 °F 46% 30.18 in 10.0 mi North 11.5 mph 19.6 mph N/A   Clear
12:35 PM 89.6 °F 91.1 °F 64.4 °F 43% 30.17 in 10.0 mi North 12.7 mph 16.1 mph N/A   Clear
12:55 PM 87.8 °F 89.4 °F 64.4 °F 46% 30.17 in 10.0 mi NW 6.9 mph - 0.09 in   Partly Cloudy
1:15 PM 87.8 °F 90.4 °F 66.2 °F 49% 30.16 in 10.0 mi NW 6.9 mph - N/A   Mostly Cloudy
1:35 PM 89.6 °F 92.2 °F 66.2 °F 46% 30.16 in 5.0 mi North 12.7 mph 17.3 mph N/A   Partly Cloudy
1:55 PM - - - N/A% 30.15 in 9.0 mi North 11.5 mph - N/A   Partly Cloudy
2:15 PM 89.6 °F 91.1 °F 64.4 °F 43% 30.15 in 10.0 mi North 11.5 mph - N/A   Partly Cloudy
2:35 PM 89.6 °F 91.1 °F 64.4 °F 43% 30.15 in 10.0 mi North 13.8 mph 17.3 mph N/A   Scattered Clouds
2:55 PM 89.6 °F 91.1 °F 64.4 °F 43% 30.15 in 10.0 mi North 12.7 mph 16.1 mph N/A   Partly Cloudy
3:15 PM 89.6 °F 91.1 °F 64.4 °F 43% 30.15 in 10.0 mi North 11.5 mph - N/A   Clear
3:35 PM 89.6 °F 91.1 °F 64.4 °F 43% 30.14 in 10.0 mi NNW 11.5 mph 18.4 mph N/A   Clear
3:55 PM 89.6 °F 91.1 °F 64.4 °F 43% 30.14 in 10.0 mi NNW 11.5 mph - N/A   Clear
4:15 PM 89.6 °F 91.1 °F 64.4 °F 43% 30.14 in 10.0 mi North 11.5 mph - N/A   Clear
4:35 PM 89.6 °F 91.1 °F 64.4 °F 43% 30.14 in 10.0 mi NNW 8.1 mph - N/A   Scattered Clouds
4:55 PM 89.6 °F 91.1 °F 64.4 °F 43% 30.14 in 10.0 mi NNE 12.7 mph - N/A   Overcast
5:15 PM 89.6 °F 91.1 °F 64.4 °F 43% 30.14 in 9.0 mi NNE 11.5 mph 16.1 mph N/A   Scattered Clouds
5:35 PM 89.6 °F 91.1 °F 64.4 °F 43% 30.14 in 10.0 mi North 10.4 mph - N/A   Scattered Clouds
5:55 PM 87.8 °F 90.4 °F 66.2 °F 49% 30.14 in 10.0 mi NNE 10.4 mph - N/A   Scattered Clouds
6:15 PM 87.8 °F 89.4 °F 64.4 °F 46% 30.14 in 10.0 mi NNE 8.1 mph - N/A   Clear
6:35 PM 87.8 °F 89.4 °F 64.4 °F 46% 30.14 in 10.0 mi NNE 11.5 mph - N/A   Clear
6:55 PM 87.8 °F 89.4 °F 64.4 °F 46% 30.14 in 10.0 mi NE 6.9 mph - N/A   Partly Cloudy
7:15 PM 86.0 °F 88.2 °F 66.2 °F 51% 30.14 in 10.0 mi NE 5.8 mph - N/A   Clear
7:35 PM 84.2 °F 86.6 °F 66.2 °F 55% 30.15 in 10.0 mi Calm Calm - N/A   Clear
7:55 PM 82.4 °F 85.4 °F 68.0 °F 62% 30.15 in 10.0 mi Calm Calm - N/A   Clear
8:15 PM 78.8 °F - 68.0 °F 69% 30.15 in 10.0 mi Calm Calm - N/A   Clear
8:35 PM 77.0 °F - 66.2 °F 69% 30.16 in 10.0 mi Calm Calm - N/A   Clear
8:55 PM 75.2 °F - 64.4 °F 69% 30.16 in 10.0 mi Calm Calm - N/A   Clear
9:15 PM 73.4 °F - 64.4 °F 73% 30.17 in 10.0 mi Calm Calm - N/A   Clear
9:35 PM 73.4 °F - 64.4 °F 73% 30.17 in 10.0 mi Calm Calm - N/A   Clear
9:55 PM 73.4 °F - 64.4 °F 73% 30.18 in 10.0 mi Calm Calm - N/A   Clear
10:15 PM 73.4 °F - 64.4 °F 73% 30.18 in 10.0 mi Calm Calm - N/A   Clear
10:55 PM 71.6 °F - 64.4 °F 78% 30.19 in 10.0 mi Calm Calm - N/A   Clear
11:15 PM 71.6 °F - 64.4 °F 78% 30.19 in 10.0 mi Calm Calm - N/A   Clear
11:35 PM 71.6 °F - 64.4 °F 78% 30.19 in 10.0 mi Calm Calm - N/A   Clear
11:55 PM 69.8 °F - 62.6 °F 78% 30.19 in 6.0 mi Calm Calm - N/A   Clear